Change the Weather History Date:

Saturday, March 15, 2014

  Actual Average (KAQP) Record (KAQP)
Temperature  
Mean Temperature 30 °F -  
Max Temperature 35 °F 32 °F 75 °F (2015)
Min Temperature 24 °F 16 °F -16 °F (1997)
Degree Days  
Heating Degree Days 36    
Moisture  
Dew Point 20 °F    
Average Humidity 66    
Maximum Humidity 74    
Minimum Humidity 48    
Precipitation  
Precipitation 0.00 in - - ()
Sea Level Pressure  
Sea Level Pressure 30.17 in    
Wind  
Wind Speed 9 mph (NNE)    
Max Wind Speed 17 mph    
Max Gust Speed 22 mph    
Visibility 10 miles    
Events      
Averages and records for this station are not official NWS values.
T = Trace of Precipitation, MM = Missing Value Source: NWS Daily Summary

Daily Weather History Graph

Daily Weather History Graph

Search for Another Location

Airport or City:

Trip Planner

Search our weather history database for the weather conditions in past years. The results will help you decide how hot, cold, wet, or windy it might be!

Date:

Astronomy

Mar. 15, 2014 Rise Set
Actual Time 7:37 AM CDT 7:30 PM CDT
Civil Twilight 7:07 AM CDT 8:00 PM CDT
Nautical Twilight 6:33 AM CDT 8:34 PM CDT
Astronomical Twilight 5:59 AM CDT 9:09 PM CDT
Moon 6:50 PM CDT (3/15) 6:51 AM CDT (3/15)
Length of Visible Light 12h 52m
Length of Day
11h 53m
Waxing Gibbous, 99% of the Moon is Illuminated
Mar 15
Waxing Gibbous
Mar 16
Full
Mar 23
Last Quarter
Mar 30
New
Apr 7
First Quarter

Hourly Weather History & Observations

Time (CDT) Temp. Windchill Dew Point Humidity Pressure Visibility Wind Dir Wind Speed Gust Speed Precip Events Conditions
12:14 AM 30.2 °F 21.3 °F 21.2 °F 69% 29.98 in 10.0 mi NNE 10.4 mph - N/A   Clear
12:33 AM 30.2 °F 20.8 °F 21.2 °F 69% 29.98 in 10.0 mi NNE 11.5 mph - N/A   Clear
12:54 AM 30.2 °F 23.4 °F 21.2 °F 69% 29.97 in 10.0 mi NNE 6.9 mph - N/A   Clear
1:14 AM 30.2 °F 22.6 °F 21.2 °F 69% 29.98 in 10.0 mi NNE 8.1 mph - N/A   Clear
1:33 AM 30.2 °F 24.3 °F 21.2 °F 69% 29.98 in 10.0 mi NE 5.8 mph - N/A   Clear
1:53 AM 28.4 °F 22.2 °F 21.2 °F 74% 29.99 in 10.0 mi NE 5.8 mph - N/A   Clear
2:14 AM 28.4 °F 24.6 °F 21.2 °F 74% 30.00 in 10.0 mi NNE 3.5 mph - N/A   Clear
2:33 AM 28.4 °F 22.2 °F 21.2 °F 74% 30.00 in 10.0 mi NNE 5.8 mph - N/A   Mostly Cloudy
2:54 AM 28.4 °F 23.3 °F 21.2 °F 74% 30.01 in 10.0 mi NE 4.6 mph - N/A   Overcast
3:14 AM 28.4 °F 22.2 °F 21.2 °F 74% 30.01 in 10.0 mi NE 5.8 mph - N/A   Scattered Clouds
3:33 AM 28.4 °F 24.6 °F 21.2 °F 74% 30.01 in 10.0 mi NE 3.5 mph - N/A   Scattered Clouds
3:54 AM 28.4 °F 23.3 °F 21.2 °F 74% 30.01 in 10.0 mi NNE 4.6 mph - N/A   Scattered Clouds
4:14 AM 28.4 °F 22.2 °F 21.2 °F 74% 30.01 in 10.0 mi NNE 5.8 mph - N/A   Scattered Clouds
4:33 AM 28.4 °F 22.2 °F 21.2 °F 74% 30.01 in 10.0 mi NNE 5.8 mph - N/A   Scattered Clouds
4:54 AM 28.4 °F 20.4 °F 21.2 °F 74% 30.01 in 10.0 mi NNE 8.1 mph - N/A   Scattered Clouds
5:14 AM 28.4 °F 22.2 °F 21.2 °F 74% 30.02 in 10.0 mi NNE 5.8 mph - N/A   Scattered Clouds
5:33 AM 28.4 °F 20.4 °F 21.2 °F 74% 30.02 in 10.0 mi NE 8.1 mph - N/A   Scattered Clouds
5:53 AM 28.4 °F 20.4 °F 21.2 °F 74% 30.02 in 10.0 mi NE 8.1 mph - N/A   Scattered Clouds
6:14 AM 28.4 °F 20.4 °F 21.2 °F 74% 30.03 in 10.0 mi NNE 8.1 mph - N/A   Mostly Cloudy
6:33 AM 28.4 °F 18.5 °F 21.2 °F 74% 30.02 in 10.0 mi NNE 11.5 mph - N/A   Overcast
6:53 AM 28.4 °F 20.4 °F 21.2 °F 74% 30.03 in 10.0 mi NNE 8.1 mph - N/A   Overcast
7:14 AM 28.4 °F 19.1 °F 19.4 °F 69% 30.04 in 10.0 mi NE 10.4 mph - N/A   Overcast
7:33 AM 28.4 °F 19.7 °F 19.4 °F 69% 30.05 in 10.0 mi NE 9.2 mph - N/A   Mostly Cloudy
7:53 AM 28.4 °F 19.7 °F 19.4 °F 69% 30.05 in 10.0 mi NE 9.2 mph - N/A   Scattered Clouds
8:14 AM 28.4 °F 19.7 °F 19.4 °F 69% 30.06 in 10.0 mi NE 9.2 mph - N/A   Mostly Cloudy
8:33 AM 28.4 °F 19.7 °F 19.4 °F 69% 30.07 in 10.0 mi ENE 9.2 mph - N/A   Scattered Clouds
8:53 AM 28.4 °F 21.2 °F 19.4 °F 69% 30.08 in 10.0 mi NE 6.9 mph - N/A   Clear
9:14 AM 28.4 °F 22.2 °F 19.4 °F 69% 30.09 in 10.0 mi NE 5.8 mph - N/A   Clear
9:33 AM 28.4 °F 20.4 °F 21.2 °F 74% 30.10 in 10.0 mi NE 8.1 mph - N/A   Clear
9:53 AM 28.4 °F 20.4 °F 21.2 °F 74% 30.12 in 10.0 mi NNE 8.1 mph - N/A   Scattered Clouds
10:14 AM 28.4 °F 19.7 °F 21.2 °F 74% 30.12 in 10.0 mi NE 9.2 mph - N/A   Mostly Cloudy
10:33 AM 28.4 °F 19.7 °F 21.2 °F 74% 30.14 in 10.0 mi NE 9.2 mph - N/A   Scattered Clouds
10:53 AM 28.4 °F 18.5 °F 21.2 °F 74% 30.14 in 10.0 mi NNE 11.5 mph - N/A   Clear
11:14 AM 30.2 °F 20.8 °F 21.2 °F 69% 30.15 in 10.0 mi NNE 11.5 mph - N/A   Clear
11:33 AM 30.2 °F 21.3 °F 21.2 °F 69% 30.16 in 10.0 mi NE 10.4 mph - N/A   Clear
11:53 AM 30.2 °F 21.3 °F 21.2 °F 69% 30.17 in 10.0 mi NE 10.4 mph - N/A   Scattered Clouds
12:14 PM 30.2 °F 21.3 °F 21.2 °F 69% 30.19 in 10.0 mi NNE 10.4 mph - N/A   Scattered Clouds
12:33 PM 30.2 °F 21.3 °F 19.4 °F 64% 30.19 in 10.0 mi NE 10.4 mph - N/A   Scattered Clouds
12:53 PM 32.0 °F 24.2 °F 21.2 °F 64% 30.20 in 10.0 mi NE 9.2 mph - N/A   Clear
1:14 PM 32.0 °F 23.0 °F 19.4 °F 60% 30.20 in 10.0 mi NE 11.5 mph - N/A   Clear
1:33 PM 33.8 °F 25.3 °F 19.4 °F 56% 30.21 in 10.0 mi NE 11.5 mph - N/A   Clear
1:54 PM 33.8 °F 25.8 °F 19.4 °F 56% 30.21 in 10.0 mi NE 10.4 mph - N/A   Clear
2:13 PM 33.8 °F 25.8 °F 19.4 °F 56% 30.22 in 10.0 mi NE 10.4 mph - N/A   Clear
2:34 PM 33.8 °F 26.4 °F 19.4 °F 56% 30.22 in 10.0 mi NE 9.2 mph 17.3 mph N/A   Clear
2:54 PM 33.8 °F 25.3 °F 19.4 °F 56% 30.23 in 10.0 mi NNE 11.5 mph - N/A   Clear
3:13 PM 33.8 °F 26.4 °F 17.6 °F 52% 30.23 in 10.0 mi NE 9.2 mph - N/A   Clear
3:34 PM 33.8 °F 25.8 °F 17.6 °F 52% 30.24 in 10.0 mi NE 10.4 mph - N/A   Clear
3:54 PM 35.6 °F 27.1 °F 19.4 °F 52% 30.24 in 10.0 mi NE 12.7 mph 17.3 mph N/A   Clear
4:13 PM 35.6 °F 28.6 °F 19.4 °F 52% 30.25 in 10.0 mi NE 9.2 mph - N/A   Clear
4:34 PM 35.6 °F 28.6 °F 19.4 °F 52% 30.26 in 10.0 mi NNE 9.2 mph - N/A   Clear
4:54 PM 35.6 °F 27.1 °F 19.4 °F 52% 30.27 in 10.0 mi NE 12.7 mph - N/A   Clear
5:13 PM 33.8 °F 25.8 °F 19.4 °F 56% 30.28 in 10.0 mi North 10.4 mph - N/A   Scattered Clouds
5:34 PM 33.8 °F 25.8 °F 19.4 °F 56% 30.28 in 10.0 mi NNE 10.4 mph - N/A   Scattered Clouds
5:54 PM 33.8 °F 25.8 °F 19.4 °F 56% 30.29 in 10.0 mi NNE 10.4 mph - N/A   Clear
6:13 PM 33.8 °F 26.4 °F 17.6 °F 52% 30.30 in 10.0 mi NNE 9.2 mph - N/A   Clear
6:34 PM 33.8 °F 25.3 °F 17.6 °F 52% 30.31 in 10.0 mi NNE 11.5 mph - N/A   Clear
6:54 PM 33.8 °F 24.8 °F 17.6 °F 52% 30.32 in 10.0 mi North 12.7 mph - N/A   Clear
7:13 PM 33.8 °F 25.8 °F 15.8 °F 48% 30.33 in 10.0 mi NNE 10.4 mph - N/A   Clear
7:34 PM 32.0 °F 22.5 °F 17.6 °F 55% 30.34 in 10.0 mi North 12.7 mph - N/A   Clear
7:54 PM 30.2 °F 19.8 °F 17.6 °F 60% 30.35 in 10.0 mi North 13.8 mph - N/A   Clear
8:13 PM 30.2 °F 20.8 °F 17.6 °F 60% 30.35 in 10.0 mi North 11.5 mph - N/A   Clear
8:34 PM 30.2 °F 20.2 °F 17.6 °F 60% 30.36 in 10.0 mi North 12.7 mph - N/A   Clear
8:54 PM 28.4 °F 16.6 °F 21.2 °F 74% 30.37 in 10.0 mi North 16.1 mph - N/A   Clear
9:13 PM 28.4 °F 17.0 °F 19.4 °F 69% 30.38 in 10.0 mi North 15.0 mph 21.9 mph N/A   Clear
9:34 PM 26.6 °F 14.7 °F 19.4 °F 74% 30.39 in 10.0 mi North 15.0 mph 21.9 mph N/A   Clear
9:54 PM 26.6 °F 14.3 °F 19.4 °F 74% 30.40 in 10.0 mi North 16.1 mph - N/A   Clear
10:13 PM 26.6 °F 15.2 °F 19.4 °F 74% 30.41 in 10.0 mi North 13.8 mph - N/A   Clear
10:34 PM 26.6 °F 14.3 °F 19.4 °F 74% 30.42 in 10.0 mi North 16.1 mph 19.6 mph N/A   Clear
10:53 PM 24.8 °F 11.5 °F 17.6 °F 74% 30.42 in 10.0 mi North 17.3 mph 20.7 mph N/A   Clear
11:13 PM 24.8 °F 11.9 °F 17.6 °F 74% 30.42 in 10.0 mi North 16.1 mph - N/A   Clear
11:34 PM 24.8 °F 12.4 °F 17.6 °F 74% 30.43 in 10.0 mi North 15.0 mph - N/A   Clear
11:53 PM 24.8 °F 12.9 °F 17.6 °F 74% 30.43 in 10.0 mi North 13.8 mph - N/A   Clear